Hourly Data Report for October 11, 2003

SHERBROOKE A
QUEBEC

45°26'00.000" N
71°41'00.000" W
241.40 m
7028124
71610
YSC

Download Data

Hourly Data (October 2003)
Hourly Data Report for October 11, 2003
TIME
LST
Temp Definition
°C
Dew Point Definition
°C
Rel Hum Definition
%
Precip. Amount Definition
mm

Wind Dir Definition
10's deg

Wind Spd Definition
km/h
Visibility Definition
km
Stn Press Definition
kPa
Hmdx Definition


Wind Chill Definition


Weather Definition


00:00 9.7 9.2 97   9 4 1.8 99.53      
01:00 9.0 8.7 98   9 6 0.8 99.55      
02:00 8.6 8.3 98   10 6 1.0 99.53      
03:00 7.1 6.5 96     0 0.3 99.55      
04:00 5.2 4.7 97     0 0.2 99.58      
05:00 5.8 5.4 97   11 4 0.2 99.61      
06:00 5.2 4.8 97     0 0.2 99.63      
07:00 6.9 6.7 99   6 4 2.4 99.66     Fog
08:00 9.7 9.5 99   10 4 4.0 99.68     Fog
09:00 13.0 11.7 92   9 4 12.9 99.66     Clear
10:00 16.4 12.9 80     0 19.3 99.63     Clear
11:00 20.4 12.1 59   28 6 24.1 99.57     Clear
12:00 22.2 11.9 52   30 7 24.1 99.46     Clear
13:00 24.2 13.0 50   27 7 24.1 99.37 27   Clear
14:00 24.0 11.7 46   30 4 24.1 99.31 26   Clear
15:00 24.4 11.4 44   25 6 24.1 99.26 26   Clear
16:00 24.0 11.5 45   27 4 24.1 99.22 26   Clear
17:00 17.8 12.6 72     0 15.0 99.21      
18:00 12.7 10.2 85     0 15.0 99.22      
19:00 12.5 10.9 90   10 4 15.0 99.21      
20:00 11.1 9.9 92   8 7 12.9 99.18      
21:00 10.4 9.2 92   10 6 12.9 99.16      
22:00 8.9 8.1 95   9 6 8.0 99.12      
23:00 9.2 8.3 94   10 9 8.0 99.10      

Notes on Data Quality.

Legend

  • E = Estimated
  • M = Missing
  • NA = Not Available*
  • [empty] = Indicates an unobserved value
Date modified: